Tracking 18856 objects as of 12-Dec-2017
HD Live streaming from Space Station
objects crossing your sky now

COSMOS 1626

Track COSMOS 1626 now!
10-day predictions
COSMOS 1626 is classified as:


NORAD ID: 15494
Int'l Code: 1985-009A
Perigee: 502.0 km
Apogee: 506.8 km
Inclination: 82.5 °
Period: 94.6 minutes
Semi major axis: 6875 km
RCS: 7.281 m2 (large)
Launch date: January 24, 1985
Source: Commonwealth of Independent States (former USSR) (CIS)
Launch site: PLESETSK MISSILE AND SPACE COMPLEX (PKMTR)
aabbcc
Your satellite tracking list
Your tracking list is empty




NASA's NSSDC Master Catalog

Two Line Element Set (TLE):
1 15494U 85009A   17345.82001655 +.00001045 +00000-0 +43239-4 0  9997
2 15494 082.4811 071.9230 0003484 129.1118 231.0429 15.22853439795513
Source of the keplerian elements: AFSPC